Regional Weather Roundup
Issued by NWS

Home | Current Version | Previous Version | Graphics & Text | Print | Product List | Glossary On
Versions: 1 2 3 4 5 6 7 8 9 10 11 12 13 14 15 16 17 18 19 20 21 22 23 24 25 26 27 28 29 30 31 32 33 34 35 36 37 38 39 40 41 42 43 44 45 46 47 48 49 50
000
ASUS43 KTOP 281159
RWRKS

WEATHER ROUNDUP FOR KANSAS
NATIONAL WEATHER SERVICE GOODLAND KS
600 AM CST FRI NOV 28 2014

NOTE:  "FAIR" INDICATES FEW OR NO CLOUDS BELOW 12,000 FEET WITH NO
SIGNIFICANT WEATHER AND/OR OBSTRUCTIONS TO VISIBILITY.

KSZ001>006-013>018-027>032-041>047-281300-
NORTHWEST KANSAS

CITY           SKY/WX    TMP DP  RH WIND       PRES   REMARKS
GOODLAND       PTCLDY    41  21  44 SW10      29.94F
6HR MIN TEMP:  31; 6HR MAX TEMP:  47;

HAYS           MOCLDY    32  21  64 SW7       29.94S
HILL CITY      PTCLDY    37  25  61 W6        29.93F
6HR MIN TEMP:  32; 6HR MAX TEMP:  40;

RUSSELL        PTCLDY    33  27  78 SW12      29.92F WCI  24
6HR MIN TEMP:  32; 6HR MAX TEMP:  37;

$$

KSZ061>065-074>080-084>089-281300-
SOUTHWEST KANSAS

CITY           SKY/WX    TMP DP  RH WIND       PRES   REMARKS
DODGE CITY     PTCLDY    33  26  75 SW9       29.97F
6HR MIN TEMP:  33; 6HR MAX TEMP:  42;

ELKHART          N/A     42  19  39 SW7         N/A
GARDEN CITY    MOCLDY    29  25  85 W9        29.96F
6HR MIN TEMP:  26; 6HR MAX TEMP:  36;

GREAT BEND     PTCLDY    32  23  69 SW7       29.97F
LIBERAL        PTCLDY    28  21  74 CALM      30.00F
$$

KSZ066>073-081>083-090>101-281300-
SOUTHEAST KANSAS

CITY           SKY/WX    TMP DP  RH WIND       PRES   REMARKS
CHANUTE        CLEAR     37  27  67 S16       30.08F WCI  28
6HR MIN TEMP:  30; 6HR MAX TEMP:  38;

COFFEYVILLE    CLEAR     39  28  64 S15       30.12F WCI  31
6HR MIN TEMP:  33; 6HR MAX TEMP:  39;

HUTCHINSON     CLEAR     32  25  75 S8        29.99F
6HR MIN TEMP:  31; 6HR MAX TEMP:  41;

MEDICINE LODGE   N/A     28  24  85 CALM      30.01F
NEWTON         CLEAR     37  23  56 S16       30.00F WCI  28
PARSONS        CLEAR     38  28  67 S14       30.11F WCI  30
6HR MIN TEMP:  35; 6HR MAX TEMP:  39;

WICHITA INTL   PTCLDY    36  25  64 S14       30.01F WCI  27
6HR MIN TEMP:  35; 6HR MAX TEMP:  38;

WICHITA JABRA  CLEAR     38  26  62 S17       30.01F WCI  28
6HR MIN TEMP:  38; 6HR MAX TEMP:  40;

WICHITA MCCONL CLEAR     37  26  64 S13       30.02F WCI  29
WINFIELD       CLEAR     37  26  64 S9        30.07F
6HR MIN TEMP:  36; 6HR MAX TEMP:  42;

$$

KSZ007>012-019>026-033>040-048>060-102>105-281300-
NORTHEAST KANSAS

CITY           SKY/WX    TMP DP  RH WIND       PRES   REMARKS
CONCORDIA      CLEAR     35  26  69 SW5       29.91F
6HR MIN TEMP:  31; 6HR MAX TEMP:  35;

EMPORIA        CLEAR     31  24  75 S14       30.01F WCI  21
6HR MIN TEMP:  30; 6HR MAX TEMP:  32;

LAWRENCE       CLEAR     35  24  64 S12       30.03F WCI  27
6HR MIN TEMP:  27; 6HR MAX TEMP:  35;

MANHATTAN      CLEAR     30  23  75 SW3       29.96F
6HR MIN TEMP:  30; 6HR MAX TEMP:  38;

OLATHE IND     CLEAR     33  24  69 S14       30.03F WCI  23
6HR MIN TEMP:  29; 6HR MAX TEMP:  33;

OLATHE EXE     CLEAR     34  24  67 S13       30.03F WCI  25
6HR MIN TEMP:  30; 6HR MAX TEMP:  34;

SALINA         CLEAR     34  26  72 S7        29.97F
6HR MIN TEMP:  34; 6HR MAX TEMP:  40;

TOPEKA BILLARD CLEAR     37  24  59 S10       30.01F WCI  30
6HR MIN TEMP:  29; 6HR MAX TEMP:  38;

TOPEKA FORBES  CLEAR     36  24  62 S12       30.00F WCI  28
6HR MIN TEMP:  33; 6HR MAX TEMP:  37;

$$


USA.gov is the U.S. government's official web portal to all federal, state and local government web resources and services.